Results By Division


Marshman® Triathlon Presented by Kinetic PT

Race Date: Sunday September 14, 2008
Description: 1/4 Mile Swim~12.5 Mile Bike~2 Mile Run
Race Category: Triathlon
# Entrants in Division: 47

Choose:
 Division
Place
Overall
Place
NameCityStateRace AgeGenderDivisionTimeBib#
View 1 4 Buckson, Kent Rehoboth Beach DE 41 M 40-44 0:56:13 279
View 2 11 Schlichtmann, Donald Collegeville PA 44 M 40-44 1:00:20 236
View 3 17 Weaver, Troy Elkridge MD 42 M 40-44 1:01:14 217
View 4 20 Carey, Shawn West Chester PA 43 M 40-44 1:01:41 178
View 5 33 Nagy, Tom Spring City PA 43 M 40-44 1:04:43 251
View 6 34 Novelli, Pete Malvern PA 42 M 40-44 1:04:57 260
View 7 36 Partin, Mark Blue Bell PA 40 M 40-44 1:05:11 237
View 8 44 Mehl, John Chalfont PA 41 M 40-44 1:06:10 202
View 9 46 Felder, Jeff Oxford PA 40 M 40-44 1:06:17 266
View 10 47 Parker, Kevin Radnor PA 44 M 40-44 1:06:20 220
View 11 57 Levy, Tom Sinking Spring PA 43 M 40-44 1:07:23 280
View 12 59 Joachim, Pete Basking Ridge NJ 43 M 40-44 1:07:26 240
View 13 64 Jones, Rob West Chester PA 40 M 40-44 1:07:45 149
View 14 70 Duffy, William Philadelphia PA 41 M 40-44 1:08:29 183
View 15 75 Kelly, Stephen Phoenixville PA 44 M 40-44 1:08:48 156
View 16 82 Wartluft, Brett Sinking Spring PA 40 M 40-44 1:09:14 163
View 17 89 Bice, David West Chester PA 42 M 40-44 1:09:42 253
View 18 90 Groener, Steve Phoenixville PA 42 M 40-44 1:09:49 249
View 19 93 Sundin, Phillip Downingtown PA 41 M 40-44 1:09:58 268
View 20 95 Hager, Jim Morrisville PA 43 M 40-44 1:10:08 172
View 21 113 Shields, Jim West Chester PA 42 M 40-44 1:11:45 174
View 22 118 Christian, Greg Audubon PA 43 M 40-44 1:12:07 223
View 23 121 Breslin, James Downingtown PA 42 M 40-44 1:12:08 182
View 24 126 Hermans, Hans Downingtown PA 44 M 40-44 1:12:53 270
View 25 127 Thir, Jonathan Glenmoore PA 40 M 40-44 1:12:54 155
View 26 129 Garner, Paul West Chester PA 42 M 40-44 1:13:05 191
View 27 130 Wright, Rob Media PA 41 M 40-44 1:13:06 190
View 28 135 Buonato, Anthony Ambler PA 41 M 40-44 1:13:19 213
View 29 138 Burd, Russell East Greenville PA 44 M 40-44 1:13:33 203
View 30 156 Starnes, Bill Kennett Square PA 40 M 40-44 1:14:49 159
View 31 164 Hineman, Gary Kennett Square PA 44 M 40-44 1:15:25 221
View 32 178 Mchoul, David Downingtown PA 40 M 40-44 1:16:06 225
View 33 188 Kagarise, Robert Harleysville PA 41 M 40-44 1:17:02 179
View 34 204 Bouvier, Bill Chester Springs PA 43 M 40-44 1:18:15 271
View 35 210 Byrne, Timothy Norristown PA 41 M 40-44 1:18:49 235
View 36 216 Mendell, Dave Wallingford PA 40 M 40-44 1:19:06 277
View 37 223 Trosino, Vince Ivyland PA 42 M 40-44 1:19:35 165
View 38 224 Weller, David Gilbertsville PA 43 M 40-44 1:19:38 212
View 39 236 Troncoso, Thomas Lancaster PA 41 M 40-44 1:20:23 234
View 40 244 Crawford, Steve Collegeville PA 40 M 40-44 1:20:40 197
View 41 280 Posey, Brian Bear DE 41 M 40-44 1:23:01 239
View 42 281 Nicastro, Vincent Drexel Hill PA 43 M 40-44 1:23:04 199
View 43 288 Porter, Dan Chester Springs PA 41 M 40-44 1:23:51 171
View 44 322 Johnson, Steven Downingtown PA 43 M 40-44 1:26:53 254
View 45 373 Stevenson, Tim Coatesville PA 41 M 40-44 1:30:40 214
View 46 393 Toocheck, Daniel West Chester PA 43 M 40-44 1:32:34 185
View 47 436 Udovich, Patrick Media PA 41 M 40-44 1:38:57 166